Wind_Speed
26 26 27 28 28 29 30 31 31 32 32 33 34 35 35 37 38 38 39 39 40 41 41 42 42 41 42 42 43 44 44 44 44 44 44 44 44 44 44 45 44 45 45 46
26 26 26 27 28 28 29 30 30 31 32 33 33 34 34 35 36 37 38 39 39 40 41 41 41 41 41 42 42 43 43 44 44 44 44 45 45 45 45 46 46 46 46 47
25 26 27 27 27 27 28 29 29 30 31 32 33 34 33 34 35 36 37 38 38 38 39 39 39 40 40 41 42 43 43 44 44 44 45 45 45 46 46 46 46 46 47 47
25 25 26 26 26 27 27 28 28 29 30 31 31 33 32 33 34 34 35 36 36 37 37 38 39 39 39 40 41 42 43 44 44 45 45 46 46 46 47 47 47 47 48 48
25 25 25 26 26 26 27 27 28 28 29 30 30 32 30 31 32 33 34 34 35 36 37 38 38 39 39 40 40 41 42 44 45 45 46 46 47 47 48 48 49 49 49 50
24 25 25 25 26 26 26 26 27 27 28 29 28 30 29 29 29 30 32 33 34 35 36 37 37 38 39 39 39 40 41 42 44 45 46 46 47 47 48 49 49 50 51 51
23 24 24 24 25 26 25 25 25 26 27 28 27 28 28 27 27 28 29 30 32 33 34 35 35 36 37 38 39 39 39 40 42 44 45 45 46 47 48 49 50 50 51 51
22 22 22 23 23 24 24 24 25 26 26 26 26 26 26 26 26 27 27 28 29 30 31 32 33 34 35 36 38 38 38 39 40 42 43 44 45 46 48 49 49 49 49 50
22 21 21 21 21 22 23 23 23 24 25 26 25 25 25 25 25 25 26 27 28 29 30 31 32 32 34 35 36 37 37 38 38 39 41 42 44 45 46 47 48 48 48 48
21 21 21 21 21 21 22 22 22 23 24 25 25 24 24 24 24 24 25 25 26 27 28 29 30 31 32 34 35 36 37 38 38 38 39 41 42 44 44 45 45 46 47 47
21 21 20 20 20 20 21 21 22 23 23 24 25 24 23 24 24 24 25 25 26 27 27 28 29 30 31 32 33 34 36 37 37 38 39 39 40 42 43 43 44 45 46 46
20 21 20 20 20 21 21 21 21 22 23 24 25 25 24 24 23 24 24 25 25 25 26 27 28 29 30 31 32 33 34 35 36 37 38 38 38 40 41 42 43 44 45 45
21 21 21 21 21 21 20 20 21 22 23 24 25 24 24 24 24 24 24 25 24 25 26 26 27 28 29 30 30 31 32 33 34 36 37 38 39 39 41 42 43 43 44 45
21 21 21 21 21 21 21 21 21 22 24 24 23 22 23 24 25 24 24 24 25 26 26 26 27 27 28 28 29 30 31 32 34 35 36 37 38 39 39 41 42 42 43 44
22 22 22 22 22 22 22 22 22 23 24 24 22 22 22 24 25 25 25 25 25 25 25 26 26 27 27 28 28 29 31 32 33 34 36 36 36 37 39 39 40 41 42 42
22 23 23 23 23 23 23 23 23 24 24 24 23 22 23 24 25 25 25 25 25 25 25 25 26 26 26 27 28 28 29 30 31 32 33 34 35 36 37 38 38 39 40 40
23 23 23 24 24 25 24 23 24 24 24 24 24 22 23 24 24 24 25 24 24 25 25 26 26 27 27 27 27 28 28 29 29 30 31 32 33 33 34 35 36 36 36 37
23 24 24 24 24 26 24 24 24 24 23 23 23 23 23 24 24 24 24 24 24 25 25 26 26 26 27 27 27 27 27 28 28 29 30 30 31 31 32 32 32 33 33 34
23 24 24 24 25 25 24 24 24 24 22 22 22 22 23 24 24 25 25 25 25 25 25 26 26 26 26 26 26 26 27 27 27 28 28 29 29 28 29 30 30 30 31 31
23 24 24 24 25 24 23 23 23 23 22 21 22 22 22 23 23 24 24 24 25 25 26 26 26 26 26 25 25 26 27 27 26 27 27 27 27 28 28 27 27 27 27 27
23 23 23 23 24 23 23 22 22 22 21 21 22 22 22 23 23 23 23 24 24 25 25 25 25 25 25 25 25 25 25 25 25 25 26 26 26 26 25 25 25 24 25 25
22 23 23 23 24 22 22 22 21 21 20 20 21 21 22 23 23 23 23 23 24 24 24 24 23 24 24 24 24 23 23 23 24 24 23 23 24 24 24 24 24 24 23 24
21 22 22 23 22 22 22 21 20 19 19 20 21 21 22 22 22 22 22 23 23 22 22 22 22 22 22 22 22 22 22 22 22 21 22 22 23 23 23 23 23 22 22 23
21 22 22 21 20 20 20 20 19 19 19 20 21 21 21 21 22 22 22 22 21 21 21 21 20 20 21 21 21 20 20 20 21 21 21 21 21 22 21 21 21 21 21 21
22 22 22 21 20 20 20 20 19 19 20 21 21 21 21 21 21 21 20 20 20 21 20 19 19 19 19 19 19 19 20 20 21 21 21 20 20 20 20 20 20 20 19 19
21 22 22 21 20 21 20 20 20 21 21 21 21 21 21 20 20 19 19 20 20 20 19 18 18 17 18 18 19 19 20 20 20 20 20 19 19 20 20 20 20 20 20 20
Wind_Direction
260 259 259 260 261 261 262 262 262 262 262 262 261 260 258 257 257 257 256 256 256 256 256 257 257 257 257 256 255 255 254 255 256 256 257 258 258 259 260 261 261 262 262 262
260 261 261 262 263 263 263 263 263 262 262 262 261 260 260 259 259 258 257 257 257 257 257 257 257 257 256 255 255 255 255 256 257 257 258 259 259 260 260 261 261 263 263 264
262 262 263 264 265 266 265 265 265 264 263 263 262 260 259 259 260 259 259 258 258 259 258 258 257 257 256 255 255 256 256 256 257 258 259 259 260 261 261 262 262 263 264 264
263 263 263 264 264 266 266 266 265 264 264 263 263 263 260 260 261 261 260 259 258 258 258 258 257 257 257 257 256 257 256 257 258 259 259 259 260 260 261 262 263 264 265 266
265 265 264 264 265 265 266 266 265 265 265 264 264 265 263 262 262 262 261 259 259 259 258 258 258 258 258 258 258 258 258 258 259 259 260 261 261 261 262 263 264 265 266 267
267 266 266 265 264 264 265 265 265 264 264 265 265 266 266 265 265 263 262 261 260 261 261 260 259 259 259 260 260 260 260 260 260 261 261 262 263 263 263 264 265 266 267 267
268 267 266 265 264 263 263 264 266 266 265 266 266 268 268 267 266 265 265 264 263 263 262 260 259 259 259 260 260 261 261 261 262 262 262 263 264 264 264 265 265 266 267 267
268 267 266 264 263 263 263 264 265 268 270 269 270 270 269 268 269 269 268 266 264 264 263 262 261 260 260 260 261 261 262 263 263 264 264 265 265 266 266 266 266 267 267 267
267 265 264 262 263 263 263 263 265 267 269 271 271 270 270 270 270 271 268 266 265 266 265 264 263 262 262 262 262 262 262 263 265 266 266 266 267 268 268 268 267 267 267 268
266 265 263 262 261 262 264 265 266 268 272 274 272 272 273 274 274 273 269 268 267 267 266 265 264 263 263 263 263 263 264 265 266 267 267 267 268 269 269 269 268 267 267 268
264 264 263 262 261 263 264 266 268 270 273 275 276 275 277 278 276 273 271 270 269 268 267 266 266 267 267 266 265 265 266 267 267 269 270 271 271 271 271 271 270 269 268 269
261 262 262 262 263 263 265 268 270 271 274 276 278 279 278 278 276 274 272 271 270 268 268 268 268 268 268 268 267 267 268 268 269 270 271 273 274 274 273 272 272 271 270 270
261 261 263 263 263 263 265 268 270 271 273 277 279 280 279 278 276 275 273 271 269 270 271 270 269 269 270 270 270 270 270 271 272 273 274 275 275 276 275 274 273 272 271 271
261 262 263 265 266 265 266 269 271 273 274 277 279 280 279 278 276 274 273 272 272 273 273 272 271 271 272 272 273 272 273 274 275 276 276 276 276 277 277 276 274 274 272 272
261 263 263 264 265 266 269 270 271 274 276 278 279 278 278 276 274 274 273 273 274 275 274 274 273 273 273 274 275 275 275 276 277 278 279 278 278 278 278 278 276 275 274 274
261 264 264 264 266 268 269 269 272 274 277 279 278 278 278 275 274 274 274 273 274 274 275 275 274 274 275 275 276 277 278 278 280 281 281 281 280 280 280 280 279 277 276 274
261 265 266 266 266 268 268 270 273 276 277 279 279 279 277 277 277 276 275 274 275 273 274 274 274 275 277 278 278 278 279 280 282 283 284 283 283 283 283 282 281 280 278 277
262 264 267 269 269 269 272 272 274 275 277 278 278 278 278 277 278 277 276 275 274 273 273 274 276 277 278 280 280 280 281 282 283 284 285 285 285 285 285 283 282 282 281 279
261 264 266 268 270 271 272 274 275 276 276 277 277 277 278 278 278 277 277 276 275 274 274 276 277 278 279 280 281 281 282 282 283 285 287 287 286 287 287 286 284 283 283 281
259 262 265 268 270 272 275 275 275 276 276 277 278 278 278 278 278 277 277 277 275 275 276 277 278 278 278 279 281 283 283 283 285 288 290 290 290 290 290 289 287 285 283 283
258 259 263 267 269 272 276 277 276 276 278 278 278 278 279 281 280 278 278 278 278 278 279 278 279 279 279 280 282 283 283 285 288 291 293 294 294 293 292 292 290 289 287 286
260 261 263 266 268 272 275 276 275 274 276 278 280 280 281 283 281 280 280 280 280 279 280 280 280 280 280 281 282 283 285 287 290 293 295 297 297 296 295 293 293 292 291 290
259 263 265 267 270 271 271 273 273 274 276 277 280 281 283 285 283 281 281 281 281 280 281 282 281 281 282 281 282 284 286 288 291 294 296 298 299 299 298 297 297 295 294 293
258 261 264 265 266 268 269 270 272 274 277 279 282 283 283 284 283 281 282 282 282 283 283 282 282 283 283 283 283 284 285 287 290 294 296 298 299 300 300 300 300 298 296 296
259 260 263 264 265 266 267 268 270 274 278 281 283 285 283 285 284 281 281 282 285 285 284 283 283 283 283 284 285 285 286 289 291 293 295 296 300 301 301 301 301 299 297 296
258 261 263 263 263 265 266 268 271 274 278 281 284 285 284 286 284 281 282 283 285 287 285 284 284 283 284 286 288 287 287 290 291 292 292 294 299 301 301 302 302 301 298 297
Height
5691 5692 5693 5693 5694 5694 5695 5695 5696 5696 5696 5697 5697 5699 5700 5700 5700 5701 5702 5703 5704 5705 5706 5707 5709 5709 5710 5712 5713 5715 5716 5718 5720 5722 5723 5724 5725 5726 5727 5728 5729 5729 5730 5730
5685 5685 5686 5685 5686 5686 5686 5687 5687 5688 5687 5688 5688 5689 5690 5690 5691 5692 5692 5693 5694 5695 5696 5697 5699 5700 5701 5702 5704 5705 5707 5708 5710 5711 5713 5714 5715 5716 5717 5718 5719 5719 5719 5720
5677 5679 5678 5679 5679 5679 5679 5679 5679 5679 5679 5679 5679 5680 5681 5681 5681 5682 5683 5683 5684 5685 5686 5687 5689 5690 5691 5692 5694 5695 5697 5698 5699 5701 5702 5703 5705 5706 5707 5707 5708 5708 5708 5708
5670 5671 5671 5671 5671 5671 5671 5671 5671 5671 5670 5670 5671 5671 5673 5672 5672 5673 5673 5674 5674 5675 5676 5677 5679 5680 5681 5682 5684 5685 5686 5688 5689 5690 5691 5693 5694 5695 5695 5696 5697 5697 5697 5697
5663 5663 5663 5664 5664 5663 5663 5663 5663 5663 5662 5662 5662 5662 5664 5663 5663 5664 5664 5664 5665 5665 5666 5667 5668 5670 5671 5672 5673 5675 5676 5677 5678 5679 5680 5681 5682 5683 5684 5684 5685 5685 5685 5685
5656 5656 5656 5656 5656 5656 5656 5656 5656 5655 5655 5655 5655 5654 5655 5655 5655 5655 5655 5655 5655 5656 5656 5657 5658 5659 5661 5662 5663 5664 5665 5666 5667 5668 5669 5670 5671 5671 5672 5672 5672 5672 5672 5672
5649 5649 5649 5649 5649 5649 5649 5649 5649 5648 5647 5647 5648 5647 5648 5647 5647 5647 5646 5646 5646 5646 5647 5647 5648 5650 5651 5652 5653 5654 5655 5656 5656 5657 5658 5658 5658 5659 5659 5659 5659 5659 5659 5659
5642 5643 5642 5642 5642 5642 5642 5643 5643 5642 5641 5641 5640 5640 5641 5640 5639 5639 5638 5638 5638 5638 5638 5639 5639 5640 5641 5642 5643 5644 5645 5646 5646 5646 5646 5647 5647 5647 5647 5647 5646 5646 5646 5646
5635 5636 5636 5635 5635 5636 5635 5636 5636 5636 5634 5634 5633 5634 5634 5633 5632 5631 5631 5630 5630 5630 5630 5630 5631 5631 5632 5633 5634 5634 5635 5635 5636 5636 5635 5635 5635 5634 5634 5633 5633 5633 5633 5632
5628 5629 5629 5629 5629 5629 5630 5630 5630 5629 5628 5627 5627 5627 5627 5626 5625 5624 5623 5623 5622 5622 5622 5622 5622 5623 5623 5624 5624 5624 5625 5625 5625 5625 5625 5624 5623 5622 5621 5621 5620 5620 5619 5618
5622 5623 5623 5623 5623 5624 5624 5624 5623 5623 5622 5621 5620 5623 5621 5619 5618 5617 5616 5616 5615 5615 5615 5615 5615 5615 5615 5615 5615 5615 5615 5615 5615 5615 5614 5613 5612 5610 5609 5609 5608 5607 5606 5605
5616 5616 5616 5617 5618 5617 5617 5617 5617 5618 5616 5615 5614 5617 5614 5612 5611 5610 5610 5609 5608 5608 5608 5608 5608 5607 5607 5606 5606 5606 5605 5605 5605 5604 5603 5602 5601 5599 5598 5597 5596 5594 5594 5593
5610 5611 5611 5611 5613 5612 5611 5611 5611 5611 5610 5608 5608 5611 5607 5605 5604 5603 5603 5602 5601 5601 5601 5600 5600 5599 5599 5598 5597 5597 5596 5596 5595 5594 5593 5591 5590 5588 5586 5585 5583 5582 5581 5580
5604 5604 5606 5606 5606 5606 5606 5606 5605 5604 5603 5602 5602 5602 5601 5598 5597 5597 5596 5595 5595 5594 5593 5593 5592 5591 5591 5590 5589 5588 5587 5586 5585 5584 5582 5580 5579 5577 5575 5573 5571 5570 5568 5567
5597 5598 5599 5599 5599 5599 5599 5599 5598 5597 5597 5596 5596 5595 5594 5592 5590 5589 5589 5588 5588 5587 5586 5585 5585 5584 5583 5582 5581 5579 5578 5577 5575 5573 5571 5569 5567 5566 5564 5561 5559 5557 5556 5554
5591 5592 5592 5593 5593 5592 5592 5592 5591 5591 5590 5589 5588 5588 5587 5585 5583 5582 5582 5581 5580 5580 5579 5578 5577 5576 5575 5574 5572 5571 5569 5567 5565 5563 5561 5559 5557 5554 5552 5550 5548 5546 5544 5542
5584 5585 5585 5586 5586 5585 5585 5586 5585 5584 5583 5582 5581 5582 5580 5578 5577 5576 5575 5574 5573 5573 5572 5571 5570 5568 5567 5565 5564 5562 5560 5558 5556 5554 5552 5549 5547 5544 5541 5539 5536 5534 5532 5530
5578 5578 5578 5578 5579 5578 5581 5579 5578 5577 5576 5575 5574 5574 5573 5571 5570 5568 5568 5567 5566 5565 5564 5563 5562 5560 5558 5557 5555 5553 5552 5550 5548 5545 5543 5540 5537 5534 5532 5529 5526 5524 5521 5519
5571 5571 5571 5571 5570 5571 5572 5572 5570 5570 5569 5568 5567 5566 5565 5564 5563 5562 5560 5559 5558 5557 5556 5555 5553 5552 5550 5549 5547 5545 5543 5542 5540 5537 5534 5532 5529 5526 5523 5520 5517 5515 5512 5510
5563 5564 5564 5564 5563 5564 5566 5565 5563 5563 5563 5562 5560 5559 5558 5557 5556 5556 5553 5552 5551 5549 5548 5547 5545 5544 5542 5541 5539 5537 5535 5534 5531 5529 5526 5523 5520 5518 5515 5511 5509 5506 5504 5501
5556 5556 5557 5556 5556 5557 5558 5557 5556 5557 5557 5555 5553 5552 5551 5550 5549 5548 5546 5544 5543 5542 5540 5539 5537 5536 5534 5533 5531 5530 5528 5526 5524 5521 5519 5515 5512 5510 5507 5504 5501 5498 5496 5494
5549 5549 5550 5549 5549 5553 5551 5550 5550 5550 5548 5547 5546 5545 5544 5542 5541 5540 5538 5537 5535 5534 5533 5531 5530 5528 5527 5525 5524 5522 5520 5518 5516 5514 5511 5508 5505 5502 5499 5497 5494 5491 5489 5487
5542 5543 5543 5544 5546 5544 5543 5543 5543 5542 5541 5540 5539 5538 5537 5535 5534 5533 5531 5530 5528 5527 5525 5524 5522 5521 5519 5518 5516 5515 5513 5511 5509 5507 5505 5502 5499 5496 5493 5490 5487 5485 5483 5480
5535 5535 5535 5536 5537 5537 5536 5535 5535 5535 5534 5533 5533 5532 5530 5529 5527 5526 5524 5523 5521 5520 5518 5517 5516 5514 5513 5511 5510 5508 5507 5505 5503 5501 5498 5496 5493 5490 5487 5484 5481 5479 5476 5474
5528 5528 5528 5529 5530 5529 5529 5529 5529 5528 5527 5527 5526 5525 5523 5522 5520 5519 5518 5516 5515 5513 5512 5510 5509 5508 5506 5505 5503 5502 5500 5499 5497 5495 5492 5490 5487 5484 5481 5479 5476 5473 5471 5468
5521 5521 5522 5523 5523 5522 5523 5522 5522 5522 5521 5520 5519 5518 5517 5515 5514 5512 5511 5510 5509 5507 5506 5504 5503 5502 5500 5499 5498 5496 5494 5493 5491 5489 5487 5484 5482 5479 5476 5473 5470 5468 5465 5463